Weather History for Luxor, Egypt

Change the Weather History Date:

Monday, September 24, 2012

  Actual Average Record
Temperature  
Mean Temperature 85 °F -  
Max Temperature 98 °F 93 °F 107 °F (2000)
Min Temperature 72 °F 66 °F 69 °F (1996)
Cooling Degree Days 20    
Growing Degree Days 35 (Base 50)    
Moisture  
Dew Point 62 °F    
Average Humidity 47    
Maximum Humidity 69    
Minimum Humidity 25    
Precipitation  
Precipitation 0.00 in 0.00 in - ()
Sea Level Pressure  
Sea Level Pressure 29.82 in    
Wind  
Wind Speed 3 mph ()    
Max Wind Speed 8 mph    
Max Gust Speed -    
Visibility 6.0 miles    
Events      
Averages and records for this station are not official NWS values.
T = Trace of Precipitation, MM = Missing Value Source: Averaged Metar Reports

Daily Weather History Graph

Daily Weather History Graph

Search for Another Location

Airport:

Trip Planner

Search our weather history database for the weather conditions in past years. The results will help you decide how hot, cold, wet, or windy it might be!

Date:

Astronomy

Sep. 24, 2012 Rise Set
Actual Time 5:38 AM EET 5:43 PM EET
Civil Twilight 5:15 AM EET 6:06 PM EET
Nautical Twilight 4:49 AM EET 6:32 PM EET
Astronomical Twilight 4:22 AM EET 6:59 PM EET
Moon 1:47 PM EET (9/24) 12:03 AM EET (9/24)
Length of Visible Light 12h 50m
Length of Day
12h 04m
Waxing Gibbous, 68% of the Moon is Illuminated
Sep 24
Waxing Gibbous
Sep 30
Full
Oct 8
Last Quarter
Oct 15
New
Oct 22
First Quarter

Hourly Weather History & Observations

Time (EET) Temp. Heat Index Dew Point Humidity Pressure Visibility Wind Dir Wind Speed Gust Speed Precip Events Conditions
12:00 AM 80.6 °F 81.5 °F 60.8 °F 51% 29.83 in - SW 4.6 mph - N/A   Clear
1:00 AM 78.8 °F - 60.8 °F 54% 29.80 in - SW 4.6 mph - N/A   Clear
2:00 AM 78 °F - 61 °F 46% 29.81 in 6 mi SW 3.5 mph - -  
2:00 AM 78.8 °F - 60.8 °F 54% 29.80 in - SW 4.6 mph - N/A   Clear
3:00 AM 78.8 °F - 60.8 °F 54% 29.80 in - SW 4.6 mph - N/A   Clear
4:00 AM 75.2 °F - 60.8 °F 61% 29.80 in - SW 4.6 mph - N/A   Clear
5:00 AM 73.4 °F - 62.6 °F 69% 29.83 in - WSW 2.3 mph - N/A   Clear
6:00 AM 73.4 °F - 62.6 °F 69% 29.83 in - West 3.5 mph - N/A   Clear
7:00 AM 77.0 °F - 64.4 °F 65% 29.86 in - WSW 2.3 mph - N/A   Clear
8:00 AM 83 °F - 64 °F 42% 29.86 in 6 mi Calm Calm - -  
8:00 AM 82.4 °F 83.9 °F 64.4 °F 54% 29.86 in - Calm Calm - N/A   Clear
9:00 AM 84.2 °F 85.0 °F 62.6 °F 48% 29.86 in - Calm Calm - N/A   Clear
10:00 AM 87.8 °F 89.4 °F 64.4 °F 46% 29.86 in - NW 2.3 mph - N/A   Clear
11:00 AM 89.6 °F 92.2 °F 66.2 °F 46% 29.86 in - NNW 2.3 mph - N/A   Clear
12:00 PM 91.4 °F 94.0 °F 66.2 °F 43% 29.83 in - NNW 3.5 mph - N/A   Clear
1:00 PM 95.0 °F 97.0 °F 64.4 °F 36% 29.80 in - West 4.6 mph - N/A   Clear
2:00 PM 96 °F - 64 °F 25% 29.79 in 6 mi West 3.5 mph - -  
2:00 PM 98.6 °F 101.0 °F 64.4 °F 32% 29.80 in - West 3.5 mph - N/A   Clear
3:00 PM 96.8 °F 98.0 °F 62.6 °F 32% 29.77 in - West 5.8 mph - N/A   Clear
4:00 PM 95.0 °F 96.0 °F 62.6 °F 34% 29.77 in - West 6.9 mph - N/A   Clear
5:00 PM 93.2 °F 93.3 °F 60.8 °F 34% 29.80 in - West 5.8 mph - N/A   Clear
6:00 PM 89.6 °F 89.5 °F 60.8 °F 38% 29.80 in - West 8.1 mph - N/A   Clear
7:00 PM 86.0 °F 85.4 °F 59.0 °F 40% 29.80 in - West 5.8 mph - N/A   Clear
8:00 PM 83 °F - 60 °F 35% 29.82 in 6 mi WSW 3.5 mph - -  
8:00 PM 82.4 °F 82.5 °F 59.0 °F 45% 29.83 in - WSW 3.5 mph - N/A   Clear
9:00 PM 82.4 °F 82.9 °F 60.8 °F 48% 29.83 in - SW 2.3 mph - N/A   Clear
10:00 PM 80.6 °F 81.1 °F 59.0 °F 48% 29.83 in - SSW 3.5 mph - N/A   Clear
11:00 PM 78.8 °F - 60.8 °F 54% 29.83 in - SW 4.6 mph - N/A   Clear